User: anonymous   Login
Location: Unspecified
(0.0000°N, 0.0000°E)
Time: 08:56:42
(UTC+02:00)
Language:

ATLAS 2AS CENTAUR R/B - Orbit

View from above orbital plane
View from above orbital plane
View from above satellite
View from above satellite

Ground track
Ground track

The orbit data is extracted from the following two-line orbital elements,

1 28096U 03054B   18112.82459717 0.00000150  00000-0  22177-3 0    04
2 28096  63.6731 355.1419 0262551 253.9339 106.0661 13.40839850    07
Epoch (UTC): 22 April 2018 19:47:25
Eccentricity: 0.0262551
inclination: 63.6731°
perigee height: 909 km
apogee height: 1302 km
right ascension of ascending node: 355.1419°
argument of perigee: 253.9339°
revolutions per day: 13.40839850
mean anomaly at epoch: 106.0661°
orbit number at epoch: 0

The dashed part of the orbit path shows where the satellite is in the earth's shadow,  

DLR